Regional Weather Roundup
Issued by NWS

Home | Current Version | Previous Version | Graphics & Text | Print | Product List | Glossary Off
Versions: 1 2 3 4 5 6 7 8 9 10 11 12 13 14 15 16 17 18 19 20 21 22 23 24 25 26 27 28 29 30 31 32 33 34 35 36 37 38 39 40 41 42 43 44 45 46 47 48 49 50

000
ASUS43 KDMX 271106
RWRIA

WEATHER ROUNDUP FOR IOWA
NATIONAL WEATHER SERVICE DES MOINES IA
500 AM CST MON FEB 27 2017

NOTE: "FAIR" INDICATES FEW OR NO CLOUDS BELOW 12,000 FEET WITH NO
SIGNIFICANT WEATHER AND/OR OBSTRUCTIONS TO VISIBILITY.

* - THESE STATIONS ARE NOT NWS STATIONS...THUS NOT UNDER NWS
QUALITY CONTROL.  THEY ALSO DO NOT REPORT WEATHER SUCH
AS PRECIPITATION OR FOG.

IAZ001>003-012>014-020>022-031>034-043>046-271200-
   NORTHWEST IOWA

CITY           SKY/WX    TMP DP  RH WIND       PRES   REMARKS
CARROLL *      CLOUDY    21  21 100 CALM      29.98S
CHEROKEE *     CLOUDY    12  11  97 CALM      29.96F
DENISON *      CLEAR     19  18  93 CALM      29.96S
LE MARS *      CLEAR     21  19  93 S7        29.95S WCI  13
SHELDON *      CLEAR     23  23 100 S7        29.92R WCI  15
SIOUX CITY     CLEAR     17  14  88 E9        29.96F WCI   6
SPENCER        CLEAR     16  13  88 S5        29.95R WCI   9
STORM LAKE *   CLOUDY    23  18  80 S8        29.96S WCI  14
$$

IAZ055>058-069>071-079>083-090>094-271200-
   SOUTHWEST IOWA

CITY           SKY/WX    TMP DP  RH WIND       PRES   REMARKS
ATLANTIC *     CLEAR     21  21 100 CALM      29.99S
AUDUBON *      CLEAR     19  16  86 CALM      29.98S
CLARINDA *     CLEAR     21  21 100 CALM      30.03S
COUNCIL BLFS * CLEAR     27  23  86 SE8       29.97S WCI  18
CRESTON *      CLEAR     28  23  80 S3        30.00S
HARLAN  *      CLEAR     18  18 100 CALM      30.02S
LAMONI         CLEAR     30  28  92 S7        30.01R FOG     WCI  23
RED OAK *      CLEAR     21  19  93 CALM      30.00S
SHENANDOAH *   CLEAR     21  21 100 CALM      30.01R
$$

IAZ047>049-059>061-072>074-084-271200-
   CENTRAL IOWA

CITY           SKY/WX    TMP DP  RH WIND       PRES   REMARKS
AMES           FOG       23  22  96 CALM      30.01S VSB 1
ANKENY *       CLEAR     21  19  93 CALM      30.03R
BOONE *        CLEAR     25  23  93 CALM      29.99S
CHARITON *     CLEAR     28  28 100 S7        30.02R WCI  21
DES MOINES     CLEAR     27  20  75 E5        30.01S WCI  22
GRINNELL*      CLEAR     27  22  81 E5        30.03S WCI  22
KNOXVILLE *    PTCLDY    30  25  80 S7        30.00S WCI  23
MARSHALLTOWN   CLEAR     20  18  92 E6        30.02R WCI  12
NEWTON *       PTCLDY    27  21  80 E7        30.02R WCI  19
PELLA *        PTCLDY    30  26  83 S5        30.04R WCI  26
PERRY *          N/A     24  23  96 E3        30.00S
$$

IAZ004>006-015-016-023>025-035-036-271200-
   NORTH CENTRAL IOWA

CITY           SKY/WX    TMP DP  RH WIND       PRES   REMARKS
ALGONA *       CLOUDY    16  18 100 S10       29.96S WCI   3
CLARION *      CLEAR     19  19 100 S9        30.00R WCI   9
ESTHERVILLE    CLEAR     14  12  92 S12       29.93F WCI   0
FORT DODGE *     N/A     14  10  85 CALM      30.00R VSB 1/4
MASON CITY     CLOUDY    14  11  87 S5        30.01R WCI   6
FOREST CITY *  FOG        5   1  85 CALM      29.99R VSB 1/4
WEBSTER CITY * CLEAR     18  16  93 SE8       29.98S WCI   7
IOWA FALLS *     N/A     24  22  93 SE3       30.02R
$$

IAZ007>011-017>019-026>030-037>042-050>054-066-271200-
   NORTHEAST IOWA

CITY           SKY/WX    TMP DP  RH WIND       PRES   REMARKS
CEDAR RAPIDS   PTCLDY    23  22  96 E5        30.03S WCI  17
CHARLES CITY * CLEAR     21  21 100 S7        30.02R FOG     WCI  13
CLINTON *      CLEAR     24  22  91 E6        30.08R WCI  17
DECORAH *      CLEAR     23  21  93 S3        30.01R
DUBUQUE        PTCLDY    25  22  88 CALM      30.05S
MONTICELLO *   CLEAR     23  21  93 CALM      30.05S
OELWEIN *      CLEAR     23  23 100 S6        30.04R WCI  16
WATERLOO       CLEAR     23  20  88 SE3       30.04R
$$

IAZ064-065-067-068-078-271200-
   EAST CENTRAL IOWA

CITY           SKY/WX    TMP DP  RH WIND       PRES   REMARKS
DAVENPORT      CLEAR     27  24  89 SE5       30.08R WCI  22
IOWA CITY      CLOUDY    29  24  82 CALM      30.07R
MUSCATINE *    PTCLDY    25  23  93 E3        30.08S
QUAD CITIES    PTCLDY    29  25  85 CALM      30.08R
$$

IAZ062-063-075>077-085>089-095>099-271200-
   SOUTHEAST IOWA

CITY           SKY/WX    TMP DP  RH WIND       PRES   REMARKS
BURLINGTON     PTCLDY    29  28  96 S5        30.07S FOG     WCI  24
FAIRFIELD *    MOCLDY    32  30  93 S8        30.05S WCI  25
KEOKUK *       FOG       32  32 100 SE5       30.07S VSB 1/2 WCI  27
CENTERVILLE *  FOG       30  30 100 CALM      30.05S VSB 1/2
OTTUMWA        PTCLDY    31  29  92 S10       30.03F WCI  22
WASHINGTON *   CLOUDY    30  30 100 S9        30.06F WCI  22
$$

ABBREVIATIONS USED IN REMARKS
   TC - TEMPERATURES IN CELSIUS
  WCI - WIND CHILL INDEX
   HX - HEAT INDEX
  VSB - VISIBILITY
$$





USA.gov is the U.S. government's official web portal to all federal, state and local government web resources and services.